N750GK KLAS-KCRQ

Flight info

Callsign N750GK
Flight time 0h 34m
Altitude 24000
Route RADYR2 LVELL TRM ESCON
Aircraft C750/M-VGDW/C

Departure

Time 2026-05-06 23:13
Airport Harry Reid International Airport (KLAS)

Arrival

Time 2026-05-06 23:47
Airport McClellan-Palomar Airport (KCRQ)
Time Latitude Longitude Altitude Speed Heading
2026-05-06 23:00 36.08173 -115.17022 2167 ft 0 kts 270°
2026-05-06 23:06 36.08163 -115.17030 2164 ft 2 kts 182°
2026-05-06 23:07 36.08148 -115.16996 2159 ft 6 kts 90°
2026-05-06 23:07 36.08157 -115.16928 2164 ft 10 kts 58°
2026-05-06 23:07 36.08223 -115.16884 2162 ft 11 kts 25°
2026-05-06 23:07 36.08309 -115.16834 2159 ft 15 kts 25°
2026-05-06 23:08 36.08409 -115.16777 2156 ft 17 kts 25°
2026-05-06 23:08 36.08517 -115.16715 2153 ft 18 kts 25°
2026-05-06 23:08 36.08634 -115.16648 2149 ft 19 kts 25°
2026-05-06 23:08 36.08757 -115.16577 2145 ft 20 kts 25°
2026-05-06 23:09 36.08890 -115.16502 2141 ft 22 kts 24°
2026-05-06 23:09 36.09032 -115.16419 2136 ft 23 kts 25°
2026-05-06 23:09 36.09185 -115.16333 2130 ft 25 kts 25°
2026-05-06 23:09 36.09344 -115.16241 2124 ft 23 kts 25°
2026-05-06 23:10 36.09484 -115.16160 2120 ft 23 kts 25°
2026-05-06 23:10 36.09621 -115.16082 2115 ft 21 kts 25°
2026-05-06 23:10 36.09728 -115.16021 2112 ft 15 kts 25°
2026-05-06 23:10 36.09794 -115.15983 2110 ft 16 kts 25°
2026-05-06 23:11 36.09929 -115.15902 2106 ft 15 kts 34°
2026-05-06 23:11 36.09970 -115.15806 2102 ft 13 kts 69°
2026-05-06 23:11 36.09968 -115.15694 2098 ft 13 kts 116°
2026-05-06 23:11 36.09925 -115.15668 2097 ft 2 kts 202°
2026-05-06 23:12 36.09919 -115.15671 2097 ft 1 kts 204°
2026-05-06 23:12 36.09916 -115.15672 2097 ft 2 kts 204°
2026-05-06 23:12 36.09535 -115.15889 2102 ft 120 kts 205°
2026-05-06 23:12 36.08598 -115.16426 2363 ft 162 kts 203°
2026-05-06 23:13 36.07540 -115.17024 3110 ft 172 kts 202°
2026-05-06 23:13 36.06409 -115.17640 3901 ft 184 kts 203°
2026-05-06 23:13 36.05198 -115.18307 4726 ft 196 kts 204°
2026-05-06 23:13 36.03917 -115.19006 5555 ft 207 kts 204°
2026-05-06 23:14 36.02567 -115.19739 6377 ft 217 kts 205°
2026-05-06 23:14 36.01156 -115.20506 7164 ft 231 kts 205°
2026-05-06 23:14 35.99595 -115.21233 7910 ft 249 kts 199°
2026-05-06 23:14 35.97902 -115.22000 8674 ft 269 kts 203°
2026-05-06 23:15 35.96090 -115.22881 9347 ft 292 kts 203°
2026-05-06 23:15 35.94110 -115.23789 10037 ft 310 kts 201°
2026-05-06 23:15 35.92029 -115.24710 10639 ft 329 kts 201°
2026-05-06 23:15 35.89792 -115.25721 10910 ft 356 kts 201°
2026-05-06 23:16 35.87384 -115.26823 11188 ft 377 kts 201°
2026-05-06 23:16 35.84909 -115.27930 12025 ft 378 kts 200°
2026-05-06 23:16 35.82459 -115.29052 12800 ft 383 kts 200°
2026-05-06 23:16 35.79944 -115.30202 13579 ft 387 kts 200°
2026-05-06 23:17 35.77398 -115.31347 14274 ft 392 kts 199°
2026-05-06 23:17 35.74820 -115.32504 14945 ft 397 kts 199°
2026-05-06 23:17 35.72213 -115.33685 15616 ft 401 kts 199°
2026-05-06 23:17 35.69578 -115.34879 16300 ft 406 kts 199°
2026-05-06 23:18 35.66909 -115.36081 17009 ft 410 kts 199°
2026-05-06 23:18 35.64209 -115.37295 17731 ft 415 kts 199°
2026-05-06 23:18 35.61446 -115.38376 18357 ft 420 kts 190°
2026-05-06 23:18 35.58535 -115.38623 19032 ft 420 kts 176°
2026-05-06 23:19 35.55641 -115.38431 19700 ft 423 kts 174°
2026-05-06 23:19 35.52685 -115.38197 20391 ft 428 kts 174°
2026-05-06 23:19 35.49693 -115.37979 21083 ft 433 kts 174°
2026-05-06 23:19 35.46669 -115.37776 21766 ft 438 kts 174°
2026-05-06 23:20 35.43605 -115.37564 22459 ft 443 kts 174°
2026-05-06 23:20 35.40509 -115.37338 23146 ft 447 kts 174°
2026-05-06 23:20 35.37385 -115.37113 23814 ft 452 kts 174°
2026-05-06 23:20 35.34204 -115.36890 24025 ft 467 kts 174°
2026-05-06 23:21 35.30896 -115.36655 24021 ft 485 kts 174°
2026-05-06 23:21 35.27465 -115.36412 24027 ft 501 kts 174°
2026-05-06 23:21 35.23931 -115.36164 24035 ft 514 kts 174°
2026-05-06 23:21 35.20335 -115.35912 24018 ft 520 kts 174°
2026-05-06 23:22 35.16701 -115.35656 24019 ft 521 kts 174°
2026-05-06 23:22 35.13116 -115.35404 24012 ft 523 kts 174°
2026-05-06 23:22 35.09469 -115.35147 24011 ft 525 kts 174°
2026-05-06 23:22 35.05827 -115.34894 24001 ft 525 kts 174°
2026-05-06 23:23 35.02176 -115.34642 23995 ft 525 kts 175°
2026-05-06 23:23 34.98523 -115.34388 23990 ft 525 kts 174°
2026-05-06 23:23 34.94877 -115.34133 23993 ft 525 kts 175°
2026-05-06 23:23 34.91239 -115.33881 23991 ft 523 kts 175°
2026-05-06 23:24 34.87616 -115.33630 23990 ft 520 kts 175°
2026-05-06 23:24 34.84047 -115.33382 23979 ft 520 kts 175°
2026-05-06 23:24 34.80427 -115.33338 23955 ft 522 kts 182°
2026-05-06 23:24 34.76817 -115.33949 23961 ft 524 kts 190°
2026-05-06 23:25 34.73311 -115.35182 23959 ft 525 kts 199°
2026-05-06 23:25 34.69875 -115.36706 23970 ft 525 kts 199°
2026-05-06 23:25 34.66437 -115.38209 23976 ft 526 kts 199°
2026-05-06 23:25 34.62982 -115.39705 23968 ft 526 kts 199°
2026-05-06 23:26 34.59535 -115.41210 23971 ft 527 kts 199°
2026-05-06 23:26 34.56091 -115.42725 23973 ft 527 kts 199°
2026-05-06 23:26 34.52641 -115.44233 23959 ft 527 kts 199°
2026-05-06 23:26 34.49185 -115.45733 23963 ft 527 kts 199°
2026-05-06 23:27 34.45730 -115.47235 23950 ft 527 kts 199°
2026-05-06 23:27 34.42282 -115.48740 23952 ft 527 kts 199°
2026-05-06 23:27 34.38869 -115.50226 23956 ft 528 kts 199°
2026-05-06 23:27 34.35405 -115.51728 23959 ft 528 kts 199°
2026-05-06 23:28 34.32013 -115.53459 23937 ft 528 kts 206°
2026-05-06 23:28 34.28845 -115.55713 23949 ft 528 kts 212°
2026-05-06 23:28 34.25718 -115.58043 23954 ft 528 kts 211°
2026-05-06 23:28 34.22605 -115.60330 23961 ft 529 kts 211°
2026-05-06 23:29 34.19579 -115.62840 23941 ft 527 kts 218°
2026-05-06 23:29 34.16709 -115.65600 23963 ft 527 kts 218°
2026-05-06 23:29 34.13813 -115.68321 23962 ft 528 kts 218°
2026-05-06 23:29 34.10896 -115.71030 23973 ft 529 kts 218°
2026-05-06 23:30 34.07990 -115.73765 23971 ft 530 kts 218°
2026-05-06 23:30 34.05089 -115.76524 23977 ft 530 kts 218°
2026-05-06 23:30 34.02179 -115.79265 23982 ft 530 kts 218°
2026-05-06 23:30 33.99296 -115.81954 23980 ft 530 kts 218°
2026-05-06 23:31 33.96385 -115.84676 23980 ft 529 kts 218°
2026-05-06 23:31 33.93514 -115.87379 23805 ft 507 kts 218°
2026-05-06 23:31 33.90827 -115.89902 23301 ft 471 kts 218°
2026-05-06 23:31 33.88298 -115.92264 22786 ft 453 kts 218°
2026-05-06 23:32 33.85815 -115.94585 22299 ft 448 kts 218°
2026-05-06 23:32 33.83361 -115.96879 21823 ft 444 kts 218°
2026-05-06 23:32 33.80924 -115.99155 21366 ft 442 kts 218°
2026-05-06 23:32 33.78503 -116.01414 20916 ft 439 kts 218°
2026-05-06 23:33 33.76100 -116.03654 20470 ft 436 kts 217°
2026-05-06 23:33 33.73745 -116.05849 20025 ft 433 kts 218°
2026-05-06 23:33 33.71376 -116.08055 19594 ft 429 kts 217°
2026-05-06 23:33 33.69021 -116.10245 19167 ft 426 kts 217°
2026-05-06 23:34 33.66681 -116.12422 18747 ft 424 kts 217°
2026-05-06 23:34 33.64359 -116.14593 18331 ft 421 kts 218°
2026-05-06 23:34 33.62335 -116.17120 17801 ft 417 kts 233°
2026-05-06 23:34 33.60781 -116.20050 17317 ft 415 kts 240°
2026-05-06 23:35 33.59263 -116.23124 16962 ft 443 kts 240°
2026-05-06 23:35 33.57640 -116.26375 16935 ft 464 kts 240°
2026-05-06 23:35 33.55952 -116.29714 16931 ft 472 kts 240°
2026-05-06 23:35 33.54263 -116.33066 16913 ft 476 kts 240°
2026-05-06 23:36 33.52563 -116.36465 16914 ft 474 kts 240°
2026-05-06 23:36 33.50865 -116.39855 16925 ft 474 kts 240°
2026-05-06 23:36 33.49163 -116.43237 16916 ft 473 kts 240°
2026-05-06 23:36 33.47461 -116.46609 16925 ft 473 kts 240°
2026-05-06 23:37 33.45760 -116.49978 16923 ft 473 kts 240°
2026-05-06 23:37 33.44054 -116.53362 16949 ft 474 kts 240°
2026-05-06 23:37 33.42370 -116.56701 16939 ft 475 kts 240°
2026-05-06 23:37 33.40653 -116.60095 16885 ft 476 kts 240°
2026-05-06 23:38 33.39001 -116.63354 16385 ft 440 kts 240°
2026-05-06 23:38 33.37462 -116.66391 15667 ft 414 kts 240°
2026-05-06 23:38 33.35990 -116.69298 14946 ft 405 kts 240°
2026-05-06 23:38 33.34538 -116.72165 14182 ft 400 kts 240°
2026-05-06 23:39 33.33102 -116.74995 13408 ft 394 kts 240°
2026-05-06 23:39 33.31695 -116.77762 12585 ft 386 kts 239°
2026-05-06 23:39 33.30317 -116.80471 11782 ft 372 kts 240°
2026-05-06 23:39 33.29024 -116.83010 11092 ft 339 kts 240°
2026-05-06 23:40 33.27872 -116.85269 10584 ft 309 kts 240°
2026-05-06 23:40 33.26772 -116.87433 10083 ft 301 kts 240°
2026-05-06 23:40 33.25696 -116.89547 9537 ft 295 kts 240°
2026-05-06 23:40 33.24636 -116.91623 8988 ft 289 kts 240°
2026-05-06 23:41 33.23622 -116.93671 8413 ft 282 kts 245°
2026-05-06 23:41 33.23220 -116.95850 7968 ft 254 kts 269°
2026-05-06 23:41 33.23159 -116.97865 7621 ft 236 kts 271°
2026-05-06 23:41 33.23105 -116.99788 7199 ft 227 kts 271°
2026-05-06 23:42 33.23067 -117.01639 6739 ft 222 kts 272°
2026-05-06 23:42 33.23011 -117.03470 6242 ft 219 kts 270°
2026-05-06 23:42 33.22792 -117.05198 5878 ft 208 kts 246°
2026-05-06 23:42 33.21872 -117.06395 5807 ft 186 kts 220°
2026-05-06 23:43 33.20841 -117.07426 5486 ft 197 kts 220°
2026-05-06 23:43 33.19805 -117.08485 5032 ft 196 kts 221°
2026-05-06 23:43 33.18764 -117.09541 4546 ft 196 kts 221°
2026-05-06 23:43 33.17795 -117.10662 4122 ft 191 kts 229°
2026-05-06 23:44 33.16973 -117.11894 3764 ft 189 kts 233°
2026-05-06 23:44 33.16255 -117.13200 3489 ft 188 kts 239°
2026-05-06 23:44 33.15623 -117.14567 3195 ft 188 kts 243°
2026-05-06 23:44 33.15079 -117.15985 2889 ft 187 kts 248°
2026-05-06 23:45 33.14636 -117.17419 2596 ft 177 kts 254°
2026-05-06 23:45 33.14324 -117.18743 2295 ft 158 kts 258°
2026-05-06 23:45 33.14109 -117.19965 2005 ft 144 kts 263°
2026-05-06 23:45 33.13950 -117.21105 1741 ft 133 kts 264°
2026-05-06 23:46 33.13782 -117.22160 1481 ft 129 kts 262°
2026-05-06 23:46 33.13612 -117.23188 1282 ft 126 kts 262°
2026-05-06 23:46 33.13458 -117.24218 1041 ft 126 kts 262°
2026-05-06 23:46 33.13282 -117.25229 805 ft 122 kts 261°
2026-05-06 23:47 33.13116 -117.26207 569 ft 119 kts 262°
2026-05-06 23:47 33.12963 -117.27166 354 ft 114 kts 261°
2026-05-06 23:47 33.12837 -117.27952 328 ft 62 kts 259°
2026-05-06 23:47 33.12781 -117.28206 329 ft 19 kts 242°
2026-05-06 23:48 33.12714 -117.28264 329 ft 9 kts 156°
2026-05-06 23:48 33.12706 -117.28255 327 ft 1 kts 128°
2026-05-06 23:48 33.12709 -117.28217 329 ft 6 kts 78°
2026-05-06 23:48 33.12719 -117.28158 329 ft 9 kts 79°
2026-05-06 23:49 33.12734 -117.28062 329 ft 12 kts 79°
2026-05-06 23:49 33.12749 -117.27965 328 ft 10 kts 79°
2026-05-06 23:49 33.12761 -117.27893 328 ft 9 kts 78°
2026-05-06 23:49 33.12765 -117.27843 328 ft 4 kts 113°
2026-05-06 23:50 33.12742 -117.27832 327 ft 3 kts 180°
2026-05-06 23:50 33.12735 -117.27859 328 ft 2 kts 260°
2026-05-06 23:50 33.12735 -117.27863 328 ft 0 kts 260°